| time (UTC) | temp F | wind direction | speed knots | gust knots | rain 1hr in | rain 24hr in | rain mn in | humidity % | barometer mb |
| 20260505170059 | 57 | 198 | 3.5 | 4.3 | 0.00 | 0.00 | 0.00 | 75 | 1014.8 |
| 20260505165554 | 57 | 193 | 3.5 | 4.3 | 0.00 | 0.00 | 0.00 | 74 | 1014.6 |
| 20260505165050 | 57 | 179 | 4.3 | 5.2 | 0.00 | 0.00 | 0.00 | 75 | 1014.6 |
| 20260505164546 | 56 | 193 | 4.3 | 4.3 | 0.00 | 0.00 | 0.00 | 77 | 1014.6 |
| 20260505164044 | 56 | 166 | 4.3 | 5.2 | 0.00 | 0.00 | 0.00 | 78 | 1014.3 |
| 20260505163542 | 56 | 167 | 4.3 | 5.2 | 0.00 | 0.00 | 0.00 | 79 | 1014.5 |
| 20260505163039 | 56 | 172 | 3.5 | 4.3 | 0.00 | 0.00 | 0.00 | 82 | 1014.6 |
| 20260505162538 | 56 | 180 | 3.5 | 4.3 | 0.00 | 0.00 | 0.00 | 85 | 1014.6 |
| 20260505162035 | 55 | 174 | 3.5 | 4.3 | 0.00 | 0.00 | 0.00 | 85 | 1014.7 |
| 20260505161532 | 55 | 184 | 3.5 | 4.3 | 0.00 | 0.00 | 0.00 | 87 | 1014.4 |
| 20260505161029 | 54 | 171 | 3.5 | 4.3 | 0.00 | 0.00 | 0.00 | 86 | 1014.6 |
| 20260505160527 | 54 | 178 | 3.5 | 5.2 | 0.00 | 0.00 | 0.00 | 87 | 1014.6 |
| 20260505153003 | 52 | 172 | 4.3 | 4.3 | 0.00 | 0.00 | 0.00 | 89 | 1014.5 |
| 20260505152500 | 52 | 165 | 4.3 | 5.2 | 0.00 | 0.00 | 0.00 | 89 | 1014.5 |
| 20260505151955 | 52 | 169 | 4.3 | 4.3 | 0.00 | 0.00 | 0.00 | 89 | 1014.5 |
| 20260505151451 | 52 | 178 | 3.5 | 4.3 | 0.00 | 0.00 | 0.00 | 89 | 1014.4 |
| 20260505150948 | 52 | 173 | 3.5 | 4.3 | 0.00 | 0.00 | 0.00 | 88 | 1014.4 |
| 20260505150445 | 52 | 168 | 3.5 | 4.3 | 0.00 | 0.00 | 0.00 | 88 | 1014.5 |
| 20260505140415 | 51 | 176 | 4.3 | 5.2 | 0.00 | 0.00 | 0.00 | 90 | 1014.1 |
| 20260505124829 | 51 | 168 | 3.5 | 4.3 | 0.00 | 0.00 | 0.00 | 90 | 1013.5 |
| 20260505124325 | 51 | 176 | 3.5 | 4.3 | 0.00 | 0.00 | 0.00 | 90 | 1013.7 |
| 20260505123821 | 51 | 170 | 3.5 | 4.3 | 0.00 | 0.00 | 0.00 | 89 | 1013.7 |
| 20260505123318 | 51 | 167 | 3.5 | 5.2 | 0.00 | 0.00 | 0.00 | 89 | 1013.7 |
| 20260505122814 | 51 | 170 | 4.3 | 4.3 | 0.00 | 0.00 | 0.00 | 90 | 1013.7 |
| 20260505122312 | 51 | 181 | 3.5 | 4.3 | 0.00 | 0.00 | 0.00 | 90 | 1013.9 |
| 20260505121808 | 51 | 172 | 3.5 | 3.5 | 0.00 | 0.00 | 0.00 | 90 | 1013.7 |
| 20260505121305 | 51 | 174 | 3.5 | 4.3 | 0.00 | 0.00 | 0.00 | 89 | 1013.7 |
| 20260505120801 | 51 | 173 | 3.5 | 3.5 | 0.00 | 0.00 | 0.00 | 89 | 1013.7 |
| 20260505120258 | 51 | 174 | 3.5 | 3.5 | 0.00 | 0.00 | 0.00 | 89 | 1013.8 |
| 20260505115756 | 51 | 176 | 3.5 | 4.3 | 0.00 | 0.00 | 0.00 | 90 | 1013.7 |
| 20260505115254 | 51 | 176 | 3.5 | 4.3 | 0.00 | 0.00 | 0.00 | 90 | 1013.7 |
| 20260505114751 | 51 | 177 | 3.5 | 4.3 | 0.00 | 0.00 | 0.00 | 90 | 1013.8 |
| 20260505114247 | 51 | 173 | 3.5 | 4.3 | 0.00 | 0.00 | 0.00 | 90 | 1013.8 |
| 20260505113744 | 51 | 170 | 3.5 | 4.3 | 0.00 | 0.00 | 0.00 | 90 | 1013.7 |
| 20260505113241 | 51 | 164 | 4.3 | 4.3 | 0.00 | 0.00 | 0.00 | 90 | 1013.6 |
| 20260505112736 | 51 | 171 | 3.5 | 4.3 | 0.00 | 0.00 | 0.00 | 89 | 1013.6 |
| 20260505112235 | 51 | 176 | 3.5 | 4.3 | 0.00 | 0.00 | 0.00 | 90 | 1013.6 |
| 20260505111734 | 51 | 166 | 3.5 | 4.3 | 0.00 | 0.00 | 0.00 | 90 | 1013.5 |
| 20260505111231 | 51 | 168 | 3.5 | 4.3 | 0.00 | 0.00 | 0.00 | 90 | 1013.6 |
| 20260505110726 | 51 | 167 | 4.3 | 4.3 | 0.00 | 0.00 | 0.00 | 90 | 1013.7 |
| 20260505110224 | 51 | 170 | 3.5 | 4.3 | 0.00 | 0.00 | 0.00 | 90 | 1013.5 |
| 20260505102159 | 52 | 179 | 3.5 | 4.3 | 0.00 | 0.00 | 0.00 | 89 | 1013.6 |
| 20260505101658 | 52 | 173 | 2.6 | 4.3 | 0.00 | 0.00 | 0.00 | 89 | 1013.4 |
| 20260505101154 | 52 | 176 | 3.5 | 4.3 | 0.00 | 0.00 | 0.00 | 89 | 1013.6 |
| 20260505100650 | 52 | 170 | 3.5 | 3.5 | 0.00 | 0.00 | 0.00 | 89 | 1013.6 |
| 20260505100148 | 52 | 172 | 3.5 | 4.3 | 0.00 | 0.00 | 0.00 | 89 | 1013.5 |
| 20260505095643 | 52 | 176 | 3.5 | 4.3 | 0.00 | 0.00 | 0.00 | 89 | 1013.7 |
| 20260505095141 | 52 | 169 | 3.5 | 4.3 | 0.00 | 0.00 | 0.00 | 89 | 1013.7 |
| 20260505094637 | 52 | 172 | 4.3 | 4.3 | 0.00 | 0.00 | 0.00 | 89 | 1013.8 |
| 20260505094133 | 52 | 169 | 3.5 | 4.3 | 0.00 | 0.00 | 0.00 | 89 | 1013.8 |
| 20260505093629 | 52 | 180 | 3.5 | 4.3 | 0.00 | 0.00 | 0.00 | 89 | 1013.7 |
| 20260505093127 | 52 | 174 | 3.5 | 3.5 | 0.00 | 0.00 | 0.00 | 89 | 1013.7 |
| 20260505092624 | 52 | 168 | 4.3 | 4.3 | 0.00 | 0.00 | 0.00 | 89 | 1013.8 |
| 20260505092123 | 52 | 171 | 3.5 | 4.3 | 0.00 | 0.00 | 0.00 | 89 | 1014.1 |
| 20260505091619 | 52 | 172 | 3.5 | 4.3 | 0.00 | 0.00 | 0.00 | 89 | 1014.0 |
| 20260505091117 | 52 | 164 | 3.5 | 4.3 | 0.00 | 0.00 | 0.00 | 89 | 1014.3 |
| 20260505090615 | 52 | 175 | 3.5 | 4.3 | 0.00 | 0.00 | 0.00 | 89 | 1014.1 |
| 20260505090113 | 52 | 176 | 3.5 | 4.3 | 0.00 | 0.00 | 0.00 | 89 | 1014.3 |
| 20260505085610 | 52 | 166 | 3.5 | 4.3 | 0.00 | 0.00 | 0.00 | 89 | 1014.1 |
| 20260505085108 | 52 | 177 | 3.5 | 5.2 | 0.00 | 0.00 | 0.00 | 89 | 1014.0 |
| 20260505084606 | 52 | 172 | 3.5 | 4.3 | 0.00 | 0.00 | 0.00 | 89 | 1014.2 |
| 20260505084104 | 52 | 180 | 3.5 | 4.3 | 0.00 | 0.00 | 0.00 | 88 | 1014.2 |
| 20260505083600 | 52 | 173 | 3.5 | 4.3 | 0.00 | 0.00 | 0.00 | 88 | 1014.1 |
| 20260505083057 | 52 | 174 | 3.5 | 4.3 | 0.00 | 0.00 | 0.00 | 89 | 1014.1 |
| 20260505082553 | 52 | 172 | 3.5 | 4.3 | 0.00 | 0.00 | 0.00 | 89 | 1014.3 |
| 20260505082050 | 52 | 171 | 3.5 | 4.3 | 0.00 | 0.00 | 0.00 | 88 | 1014.3 |
| 20260505081546 | 52 | 177 | 3.5 | 4.3 | 0.00 | 0.00 | 0.00 | 88 | 1014.4 |
| 20260505081044 | 52 | 177 | 3.5 | 4.3 | 0.00 | 0.00 | 0.00 | 88 | 1014.4 |
| 20260505080540 | 52 | 172 | 3.5 | 3.5 | 0.00 | 0.00 | 0.00 | 88 | 1014.2 |
| 20260505080037 | 52 | 174 | 3.5 | 4.3 | 0.00 | 0.00 | 0.00 | 88 | 1014.2 |
| 20260505075532 | 52 | 168 | 4.3 | 4.3 | 0.00 | 0.00 | 0.00 | 88 | 1014.5 |
| 20260505075030 | 52 | 178 | 3.5 | 3.5 | 0.00 | 0.00 | 0.00 | 87 | 1014.3 |
| 20260505074527 | 52 | 175 | 3.5 | 3.5 | 0.00 | 0.00 | 0.00 | 87 | 1014.1 |
| 20260505074024 | 52 | 172 | 3.5 | 3.5 | 0.00 | 0.00 | 0.00 | 87 | 1014.3 |
| 20260505073521 | 52 | 172 | 3.5 | 4.3 | 0.00 | 0.00 | 0.00 | 87 | 1014.2 |
| 20260505073020 | 52 | 169 | 3.5 | 3.5 | 0.00 | 0.00 | 0.00 | 86 | 1014.3 |
| 20260505072515 | 52 | 171 | 3.5 | 4.3 | 0.00 | 0.00 | 0.00 | 87 | 1014.1 |
| 20260505072011 | 52 | 169 | 3.5 | 4.3 | 0.00 | 0.00 | 0.00 | 87 | 1014.0 |
| 20260505071507 | 52 | 180 | 3.5 | 4.3 | 0.00 | 0.00 | 0.00 | 87 | 1013.8 |
| 20260505071005 | 52 | 168 | 4.3 | 4.3 | 0.00 | 0.00 | 0.00 | 86 | 1014.2 |
| 20260505070502 | 52 | 171 | 4.3 | 4.3 | 0.00 | 0.00 | 0.00 | 86 | 1014.1 |
| 20260505065957 | 53 | 171 | 3.5 | 4.3 | 0.00 | 0.00 | 0.00 | 86 | 1014.1 |
| 20260505065454 | 53 | 170 | 3.5 | 4.3 | 0.00 | 0.00 | 0.00 | 86 | 1014.1 |
| 20260505064951 | 53 | 176 | 3.5 | 3.5 | 0.00 | 0.00 | 0.00 | 85 | 1013.9 |
| 20260505064447 | 53 | 173 | 3.5 | 3.5 | 0.00 | 0.00 | 0.00 | 84 | 1013.9 |
| 20260505063946 | 53 | 180 | 3.5 | 3.5 | 0.00 | 0.00 | 0.00 | 84 | 1014.0 |
| 20260505063442 | 53 | 176 | 3.5 | 4.3 | 0.00 | 0.00 | 0.00 | 83 | 1014.0 |
| 20260505062939 | 53 | 179 | 3.5 | 4.3 | 0.00 | 0.00 | 0.00 | 83 | 1013.9 |
| 20260505062436 | 54 | 190 | 4.3 | 4.3 | 0.00 | 0.00 | 0.00 | 82 | 1013.9 |
| 20260505061932 | 54 | 186 | 3.5 | 4.3 | 0.00 | 0.00 | 0.00 | 81 | 1013.9 |
| 20260505061431 | 54 | 178 | 3.5 | 4.3 | 0.00 | 0.00 | 0.00 | 81 | 1013.9 |
| 20260505060928 | 54 | 186 | 4.3 | 4.3 | 0.00 | 0.00 | 0.00 | 80 | 1013.9 |
| 20260505060425 | 54 | 189 | 4.3 | 4.3 | 0.00 | 0.00 | 0.00 | 80 | 1014.0 |
| 20260505055921 | 54 | 180 | 3.5 | 4.3 | 0.00 | 0.00 | 0.00 | 80 | 1014.0 |
| 20260505055417 | 54 | 183 | 3.5 | 5.2 | 0.00 | 0.00 | 0.00 | 80 | 1014.0 |
| 20260505054914 | 54 | 181 | 3.5 | 5.2 | 0.00 | 0.00 | 0.00 | 80 | 1014.1 |
| 20260505054411 | 54 | 185 | 3.5 | 4.3 | 0.00 | 0.00 | 0.00 | 80 | 1014.2 |
| 20260505053910 | 54 | 185 | 4.3 | 4.3 | 0.00 | 0.00 | 0.00 | 81 | 1014.1 |
| 20260505053406 | 54 | 188 | 3.5 | 4.3 | 0.00 | 0.00 | 0.00 | 80 | 1014.4 |
| 20260505052903 | 54 | 179 | 3.5 | 4.3 | 0.00 | 0.00 | 0.00 | 81 | 1014.5 |
| 20260505052400 | 54 | 169 | 4.3 | 4.3 | 0.00 | 0.00 | 0.00 | 81 | 1014.2 |
| 20260505051857 | 54 | 172 | 4.3 | 4.3 | 0.00 | 0.00 | 0.00 | 80 | 1014.4 |
| 20260505051354 | 54 | 179 | 3.5 | 4.3 | 0.00 | 0.00 | 0.00 | 82 | 1014.4 |
| 20260505050852 | 54 | 176 | 3.5 | 5.2 | 0.00 | 0.00 | 0.00 | 82 | 1014.4 |
| 20260505050351 | 54 | 165 | 4.3 | 4.3 | 0.00 | 0.00 | 0.00 | 82 | 1014.4 |
| 20260505041318 | 55 | 174 | 3.5 | 4.3 | 0.00 | 0.00 | 0.00 | 79 | 1013.9 |
| 20260505040815 | 55 | 180 | 3.5 | 4.3 | 0.00 | 0.00 | 0.00 | 79 | 1013.9 |
| 20260505040313 | 55 | 180 | 3.5 | 4.3 | 0.00 | 0.00 | 0.00 | 79 | 1013.7 |
| 20260505035809 | 55 | 178 | 3.5 | 4.3 | 0.00 | 0.00 | 0.00 | 80 | 1013.6 |
| 20260505035305 | 55 | 179 | 3.5 | 4.3 | 0.00 | 0.00 | 0.00 | 79 | 1013.5 |
| 20260505034802 | 55 | 170 | 5.2 | 5.2 | 0.00 | 0.00 | 0.00 | 78 | 1013.6 |
| 20260505034259 | 55 | 171 | 4.3 | 4.3 | 0.00 | 0.00 | 0.00 | 79 | 1013.6 |
| 20260505033755 | 55 | 174 | 3.5 | 5.2 | 0.00 | 0.00 | 0.00 | 78 | 1013.5 |
| 20260505033253 | 55 | 173 | 4.3 | 4.3 | 0.00 | 0.00 | 0.00 | 78 | 1013.3 |
| 20260505032751 | 55 | 168 | 4.3 | 5.2 | 0.00 | 0.00 | 0.00 | 77 | 1013.3 |
| 20260505032247 | 56 | 167 | 4.3 | 5.2 | 0.00 | 0.00 | 0.00 | 77 | 1013.3 |
| 20260505031744 | 56 | 173 | 3.5 | 4.3 | 0.00 | 0.00 | 0.00 | 76 | 1013.3 |
| 20260505031240 | 56 | 165 | 4.3 | 5.2 | 0.00 | 0.00 | 0.00 | 76 | 1013.4 |
| 20260505030738 | 56 | 180 | 3.5 | 4.3 | 0.00 | 0.00 | 0.00 | 74 | 1013.2 |
| 20260505030234 | 57 | 181 | 3.5 | 4.3 | 0.00 | 0.00 | 0.00 | 74 | 1013.4 |
| 20260505025729 | 57 | 190 | 4.3 | 4.3 | 0.00 | 0.00 | 0.00 | 72 | 1013.3 |
| 20260505025228 | 57 | 189 | 3.5 | 4.3 | 0.00 | 0.00 | 0.00 | 71 | 1013.1 |
| 20260505024726 | 58 | 187 | 4.3 | 5.2 | 0.00 | 0.00 | 0.00 | 70 | 1013.0 |
| 20260505024223 | 58 | 191 | 3.5 | 4.3 | 0.00 | 0.00 | 0.00 | 69 | 1013.2 |
| 20260505023720 | 59 | 187 | 3.5 | 4.3 | 0.00 | 0.00 | 0.00 | 69 | 1013.3 |
| 20260505023217 | 59 | 186 | 3.5 | 4.3 | 0.00 | 0.00 | 0.00 | 68 | 1013.1 |
| 20260505022715 | 59 | 181 | 3.5 | 4.3 | 0.00 | 0.00 | 0.00 | 66 | 1013.1 |
| 20260505022211 | 59 | 172 | 3.5 | 3.5 | 0.00 | 0.00 | 0.00 | 66 | 1013.2 |
| 20260505021708 | 59 | 174 | 3.5 | 5.2 | 0.00 | 0.00 | 0.00 | 66 | 1013.2 |
| 20260505021205 | 60 | 181 | 3.5 | 3.5 | 0.00 | 0.00 | 0.00 | 65 | 1013.1 |
| 20260505020701 | 60 | 186 | 2.6 | 5.2 | 0.00 | 0.00 | 0.00 | 65 | 1013.0 |
| 20260505020156 | 60 | 180 | 3.5 | 4.3 | 0.00 | 0.00 | 0.00 | 65 | 1013.0 |
| 20260505015654 | 60 | 164 | 4.3 | 4.3 | 0.00 | 0.00 | 0.00 | 64 | 1013.1 |
| 20260505015150 | 60 | 180 | 3.5 | 5.2 | 0.00 | 0.00 | 0.00 | 63 | 1013.0 |
| 20260505014647 | 60 | 172 | 4.3 | 6.1 | 0.00 | 0.00 | 0.00 | 63 | 1012.9 |
| 20260505014144 | 61 | 181 | 3.5 | 5.2 | 0.00 | 0.00 | 0.00 | 62 | 1013.3 |
| 20260505013642 | 61 | 182 | 2.6 | 4.3 | 0.00 | 0.00 | 0.00 | 64 | 1013.2 |
| 20260505013139 | 61 | 170 | 4.3 | 5.2 | 0.00 | 0.00 | 0.00 | 62 | 1013.3 |
| 20260505012638 | 61 | 190 | 1.7 | 4.3 | 0.00 | 0.00 | 0.00 | 60 | 1013.2 |
| 20260505012134 | 61 | 181 | 3.5 | 5.2 | 0.00 | 0.00 | 0.00 | 61 | 1013.2 |
| 20260505011630 | 62 | 174 | 3.5 | 6.1 | 0.00 | 0.00 | 0.00 | 59 | 1013.2 |
| 20260505011128 | 62 | 190 | 3.5 | 5.2 | 0.00 | 0.00 | 0.00 | 60 | 1013.2 |
| 20260505010627 | 62 | 187 | 3.5 | 4.3 | 0.00 | 0.00 | 0.00 | 59 | 1013.5 |
| 20260505010124 | 62 | 164 | 3.5 | 5.2 | 0.00 | 0.00 | 0.00 | 58 | 1013.4 |
| 20260505005620 | 62 | 171 | 3.5 | 7.0 | 0.00 | 0.00 | 0.00 | 58 | 1013.3 |
| 20260505005118 | 62 | 173 | 3.5 | 5.2 | 0.00 | 0.00 | 0.00 | 57 | 1013.5 |
| 20260505004615 | 62 | 166 | 4.3 | 4.3 | 0.00 | 0.00 | 0.00 | 56 | 1013.7 |
| 20260505004111 | 63 | 163 | 5.2 | 5.2 | 0.00 | 0.00 | 0.00 | 54 | 1013.6 |
| 20260505003609 | 63 | 196 | 4.3 | 5.2 | 0.00 | 0.00 | 0.00 | 53 | 1013.5 |
| 20260505003106 | 63 | 170 | 4.3 | 4.3 | 0.00 | 0.00 | 0.00 | 54 | 1013.4 |
| 20260505002601 | 64 | 179 | 3.5 | 6.1 | 0.00 | 0.00 | 0.00 | 53 | 1013.4 |
| 20260505002100 | 65 | 201 | 5.2 | 7.8 | 0.00 | 0.00 | 0.00 | 53 | 1013.3 |
| 20260505001557 | 65 | 212 | 4.3 | 6.1 | 0.00 | 0.00 | 0.00 | 53 | 1013.5 |
| 20260505001055 | 65 | 185 | 3.5 | 7.8 | 0.00 | 0.00 | 0.00 | 55 | 1013.3 |
| 20260505000552 | 67 | 181 | 3.5 | 5.2 | 0.00 | 0.00 | 0.00 | 53 | 1013.3 |
| 20260505000049 | 68 | 159 | 4.3 | 5.2 | 0.00 | 0.00 | 0.00 | 52 | 1013.2 |
| 20260504235546 | 67 | 227 | 5.2 | 6.1 | 0.00 | 0.00 | 0.00 | 53 | 1013.2 |
| 20260504235043 | 66 | 194 | 4.3 | 6.1 | 0.00 | 0.00 | 0.00 | 55 | 1013.2 |
| 20260504234539 | 67 | 194 | 4.3 | 6.1 | 0.00 | 0.00 | 0.00 | 56 | 1013.5 |
| 20260504234036 | 68 | 177 | 4.3 | 5.2 | 0.00 | 0.00 | 0.00 | 52 | 1013.2 |
| 20260504233532 | 68 | 184 | 1.7 | 5.2 | 0.00 | 0.00 | 0.00 | 52 | 1013.3 |
| 20260504233029 | 67 | 187 | 2.6 | 4.3 | 0.00 | 0.00 | 0.00 | 52 | 1013.2 |
| 20260504232526 | 67 | 174 | 5.2 | 5.2 | 0.00 | 0.00 | 0.00 | 54 | 1013.4 |
| 20260504232024 | 69 | 176 | 5.2 | 5.2 | 0.00 | 0.00 | 0.00 | 51 | 1013.2 |
| 20260504231520 | 67 | 178 | 2.6 | 8.7 | 0.00 | 0.00 | 0.00 | 54 | 1013.4 |
| 20260504231016 | 68 | 159 | 2.6 | 6.1 | 0.00 | 0.00 | 0.00 | 53 | 1013.4 |
| 20260504230513 | 70 | 228 | 1.7 | 6.1 | 0.00 | 0.00 | 0.00 | 50 | 1013.3 |
| 20260504230012 | 70 | 192 | 4.3 | 4.3 | 0.00 | 0.00 | 0.00 | 52 | 1013.4 |
| 20260504225508 | 71 | 177 | 3.5 | 5.2 | 0.00 | 0.00 | 0.00 | 49 | 1013.4 |
| 20260504225005 | 69 | 193 | 2.6 | 4.3 | 0.00 | 0.00 | 0.00 | 52 | 1013.3 |
| 20260504224501 | 68 | 169 | 4.3 | 4.3 | 0.00 | 0.00 | 0.00 | 53 | 1013.4 |
| 20260504223959 | 69 | 219 | 2.6 | 4.3 | 0.00 | 0.00 | 0.00 | 52 | 1013.5 |
| 20260504223455 | 69 | 182 | 3.5 | 5.2 | 0.00 | 0.00 | 0.00 | 50 | 1013.4 |
| 20260504222951 | 68 | 209 | 2.6 | 6.1 | 0.00 | 0.00 | 0.00 | 54 | 1013.7 |
| 20260504222449 | 68 | 258 | 4.3 | 7.0 | 0.00 | 0.00 | 0.00 | 51 | 1013.5 |
| 20260504221946 | 69 | 165 | 4.3 | 5.2 | 0.00 | 0.00 | 0.00 | 51 | 1013.6 |
| 20260504221443 | 69 | 154 | 3.5 | 5.2 | 0.00 | 0.00 | 0.00 | 51 | 1013.8 |
| 20260504220940 | 68 | 171 | 3.5 | 5.2 | 0.00 | 0.00 | 0.00 | 51 | 1013.7 |
| 20260504220436 | 68 | 189 | 2.6 | 5.2 | 0.00 | 0.00 | 0.00 | 51 | 1013.9 |
| 20260504215933 | 67 | 218 | 6.1 | 6.1 | 0.00 | 0.00 | 0.00 | 51 | 1014.1 |
| 20260504215430 | 66 | 188 | 2.6 | 4.3 | 0.00 | 0.00 | 0.00 | 56 | 1014.0 |
| 20260504214926 | 65 | 177 | 2.6 | 4.3 | 0.00 | 0.00 | 0.00 | 55 | 1014.2 |
| 20260504214423 | 66 | 156 | 5.2 | 7.8 | 0.00 | 0.00 | 0.00 | 55 | 1014.2 |
| 20260504213920 | 66 | 212 | 7.0 | 7.0 | 0.00 | 0.00 | 0.00 | 57 | 1014.2 |
| 20260504213416 | 66 | 160 | 5.2 | 8.7 | 0.00 | 0.00 | 0.00 | 59 | 1014.0 |
| 20260504212914 | 65 | 188 | 4.3 | 7.0 | 0.00 | 0.00 | 0.00 | 60 | 1014.2 |
| 20260504212409 | 64 | 144 | 6.1 | 6.1 | 0.00 | 0.00 | 0.00 | 61 | 1014.2 |
| 20260504211907 | 62 | 170 | 2.6 | 4.3 | 0.00 | 0.00 | 0.00 | 64 | 1014.3 |
| 20260504211403 | 62 | 235 | 1.7 | 3.5 | 0.00 | 0.00 | 0.00 | 62 | 1014.3 |
| 20260504210900 | 61 | 169 | 3.5 | 6.1 | 0.00 | 0.00 | 0.00 | 63 | 1014.4 |
| 20260504210357 | 62 | 180 | 4.3 | 5.2 | 0.00 | 0.00 | 0.00 | 63 | 1014.3 |
| 20260504205854 | 62 | 180 | 3.5 | 5.2 | 0.00 | 0.00 | 0.00 | 64 | 1014.4 |
| 20260504205352 | 62 | 157 | 3.5 | 4.3 | 0.00 | 0.00 | 0.00 | 61 | 1014.3 |
| 20260504204850 | 62 | 185 | 4.3 | 4.3 | 0.00 | 0.00 | 0.00 | 60 | 1014.5 |
| 20260504204348 | 62 | 171 | 1.7 | 7.0 | 0.00 | 0.00 | 0.00 | 58 | 1014.3 |
| 20260504203847 | 63 | 207 | 1.7 | 5.2 | 0.00 | 0.00 | 0.00 | 60 | 1014.2 |
| 20260504203344 | 63 | 140 | 7.0 | 7.8 | 0.00 | 0.00 | 0.00 | 60 | 1014.1 |
| 20260504202840 | 63 | 176 | 4.3 | 9.6 | 0.00 | 0.00 | 0.00 | 62 | 1014.2 |
| 20260504202337 | 63 | 147 | 6.1 | 8.7 | 0.00 | 0.00 | 0.00 | 64 | 1014.1 |
| 20260504201833 | 63 | 157 | 5.2 | 7.0 | 0.00 | 0.00 | 0.00 | 61 | 1014.2 |
| 20260504201331 | 64 | 151 | 7.0 | 9.6 | 0.00 | 0.00 | 0.00 | 63 | 1014.1 |
| 20260504200828 | 62 | 183 | 4.3 | 7.0 | 0.00 | 0.00 | 0.00 | 67 | 1014.4 |
| 20260504200325 | 62 | 176 | 3.5 | 9.6 | 0.00 | 0.00 | 0.00 | 63 | 1014.2 |
| 20260504195821 | 63 | 167 | 4.3 | 5.2 | 0.00 | 0.00 | 0.00 | 62 | 1014.1 |
| 20260504195317 | 63 | 167 | 5.2 | 7.0 | 0.00 | 0.00 | 0.00 | 65 | 1014.2 |
| 20260504194814 | 61 | 202 | 4.3 | 4.3 | 0.00 | 0.00 | 0.00 | 65 | 1014.2 |
| 20260504194310 | 62 | 241 | 1.7 | 5.2 | 0.00 | 0.00 | 0.00 | 65 | 1014.4 |
| 20260504193806 | 61 | 171 | 2.6 | 5.2 | 0.00 | 0.00 | 0.00 | 67 | 1014.4 |
| 20260504193304 | 60 | 158 | 4.3 | 6.1 | 0.00 | 0.00 | 0.00 | 71 | 1014.5 |
| 20260504192802 | 60 | 172 | 3.5 | 5.2 | 0.00 | 0.00 | 0.00 | 70 | 1014.4 |
| 20260504192300 | 60 | 168 | 1.7 | 4.3 | 0.00 | 0.00 | 0.00 | 70 | 1014.4 |
| 20260504191758 | 60 | 175 | 2.6 | 6.1 | 0.00 | 0.00 | 0.00 | 73 | 1014.4 |
| 20260504191255 | 59 | 183 | 3.5 | 5.2 | 0.00 | 0.00 | 0.00 | 71 | 1014.5 |
| 20260504190750 | 60 | 178 | 2.6 | 5.2 | 0.00 | 0.00 | 0.00 | 71 | 1014.5 |
| 20260504190247 | 60 | 168 | 4.3 | 5.2 | 0.00 | 0.00 | 0.00 | 71 | 1014.4 |
| 20260504185743 | 60 | 178 | 3.5 | 4.3 | 0.00 | 0.00 | 0.00 | 72 | 1014.5 |
| 20260504185240 | 59 | 154 | 3.5 | 4.3 | 0.00 | 0.00 | 0.00 | 72 | 1014.6 |
| 20260504184737 | 60 | 173 | 4.3 | 5.2 | 0.00 | 0.00 | 0.00 | 73 | 1014.7 |
| 20260504184232 | 59 | 171 | 3.5 | 4.3 | 0.00 | 0.00 | 0.00 | 75 | 1014.7 |
| 20260504183728 | 59 | 182 | 3.5 | 4.3 | 0.00 | 0.00 | 0.00 | 74 | 1014.6 |
| 20260504183226 | 59 | 154 | 5.2 | 6.1 | 0.00 | 0.00 | 0.00 | 74 | 1014.6 |
| 20260504182724 | 59 | 161 | 4.3 | 4.3 | 0.00 | 0.00 | 0.00 | 73 | 1014.6 |
| 20260504182220 | 60 | 160 | 4.3 | 4.3 | 0.00 | 0.00 | 0.00 | 70 | 1014.6 |
| 20260504181718 | 60 | 180 | 3.5 | 5.2 | 0.00 | 0.00 | 0.00 | 70 | 1014.5 |
| 20260504181215 | 59 | 178 | 3.5 | 4.3 | 0.00 | 0.00 | 0.00 | 73 | 1014.5 |
| 20260504180714 | 59 | 155 | 5.2 | 5.2 | 0.00 | 0.00 | 0.00 | 72 | 1014.4 |
| 20260504180213 | 59 | 162 | 4.3 | 5.2 | 0.00 | 0.00 | 0.00 | 74 | 1014.6 |
| 20260504175709 | 59 | 146 | 6.1 | 7.0 | 0.00 | 0.00 | 0.00 | 73 | 1014.3 |
| 20260504175206 | 60 | 180 | 3.5 | 4.3 | 0.00 | 0.00 | 0.00 | 73 | 1014.3 |
| 20260504174704 | 60 | 184 | 3.5 | 4.3 | 0.00 | 0.00 | 0.00 | 73 | 1014.3 |
| 20260504174202 | 60 | 153 | 5.2 | 7.0 | 0.00 | 0.00 | 0.00 | 76 | 1014.2 |
| 20260504173658 | 59 | 178 | 3.5 | 7.0 | 0.00 | 0.00 | 0.00 | 77 | 1013.9 |
| 20260504173155 | 59 | 148 | 6.1 | 7.8 | 0.00 | 0.00 | 0.00 | 75 | 1013.9 |
| 20260504172652 | 59 | 164 | 5.2 | 5.2 | 0.00 | 0.00 | 0.00 | 77 | 1014.2 |
| 20260504172148 | 59 | 164 | 4.3 | 6.1 | 0.00 | 0.00 | 0.00 | 74 | 1014.1 |
| 20260504171644 | 59 | 160 | 4.3 | 7.0 | 0.00 | 0.00 | 0.00 | 75 | 1014.2 |
| 20260504171142 | 59 | 170 | 5.2 | 6.1 | 0.00 | 0.00 | 0.00 | 73 | 1014.0 |
| 20260504170638 | 59 | 164 | 5.2 | 6.1 | 0.00 | 0.00 | 0.00 | 77 | 1013.9 |